Location: Austin
(30.3000°N, 97.7500°W)
Time: 23:09:25
(UTC-05:00)

Cosmos 2263 Rocket - Pass Details

Date: 08 April 2026
Orbit: 823 x 846 km, 71.0° (Epoch: 20 April)

Event Time Altitude Azimuth Distance (km) Brightness Sun altitude
Rises 20:30:04 0° 331° (NNW) 3,366 6.0 -8.4°
Reaches altitude 10° 20:32:37 10° 324° (NW) 2,428 5.4 -8.9°
Maximum altitude 20:37:48 42° 256° (WSW) 1,164 3.5 -10.0°
Drops below altitude 10° 20:42:57 10° 186° (S) 2,410 4.5 -11.1°
Sets 20:45:29 0° 180° (S) 3,340 5.1 -11.6°
